Location: Berlin
(38.3226°N, 75.2177°W)
Time: 21:44:59
(UTC+00:00)

Cosmos 2026 Rocket - Pass Details

Date: 26 October 2020
Orbit: 939 x 1002 km, 82.9° (Epoch: 25 November)

Event Time Altitude Azimuth Distance (km) Brightness Sun altitude
Rises 10:02:32 0° 182° (S) 3,696 7.1 -16.0°
Reaches altitude 10° 10:05:02 10° 182° (S) 2,756 6.4 -15.6°
Maximum altitude 10:11:23 83° 95° (E) 1,013 4.1 -14.3°
Drops below altitude 10° 10:17:48 10° 9° (N) 2,779 6.4 -13.1°
Sets 10:20:20 0° 8° (N) 3,729 7.1 -12.6°
